Time,TemperatureF,DewpointF,PressureIn,WindDirection,WindDirectionDegrees,WindSpeedMPH,WindSpeedGustMPH,Humidity,HourlyPrecipIn,Conditions,Clouds,dailyrainin,SoftwareType,DateUTC
2013-05-11 05:02:00,36.9,34.0,29.76,North,-999,0.0,0.0,89,0.00,,,-99.99,FreeWX 2.04,2013-05-11 09:02:00,
2013-05-11 06:33:00,35.4,32.2,29.74,North,-999,0.0,0.0,88,0.00,,,-99.99,FreeWX 2.04,2013-05-11 10:33:00,
2013-05-11 06:36:00,35.2,32.0,29.74,North,-999,0.0,0.0,88,0.00,,,-99.99,FreeWX 2.04,2013-05-11 10:36:00,
2013-05-11 06:41:00,35.1,31.8,29.74,North,-999,0.0,0.0,88,0.00,,,-99.99,FreeWX 2.04,2013-05-11 10:41:00,
2013-05-11 06:46:00,35.1,31.8,29.74,North,-999,0.0,0.0,88,0.00,,,-99.99,FreeWX 2.04,2013-05-11 10:46:00,
2013-05-11 06:51:00,35.1,31.8,29.76,North,-999,0.0,0.0,88,0.00,,,-99.99,FreeWX 2.04,2013-05-11 10:51:00,
2013-05-11 06:56:00,35.1,31.8,29.76,North,-999,0.0,0.0,88,0.00,,,-99.99,FreeWX 2.04,2013-05-11 10:56:00,
2013-05-11 07:01:00,35.1,31.8,29.76,North,-999,0.0,0.0,88,0.00,,,-99.99,FreeWX 2.04,2013-05-11 11:01:00,
2013-05-11 07:06:00,35.2,32.0,29.76,North,-999,0.0,0.0,88,0.00,,,-99.99,FreeWX 2.04,2013-05-11 11:06:00,
2013-05-11 07:11:00,35.4,32.2,29.76,North,-999,0.0,0.0,88,0.00,,,-99.99,FreeWX 2.04,2013-05-11 11:11:00,
2013-05-11 07:16:00,35.6,32.4,29.76,North,-999,0.0,0.0,88,0.00,,,-99.99,FreeWX 2.04,2013-05-11 11:16:00,
2013-05-11 07:21:00,36.1,33.3,29.74,North,-999,0.0,0.0,89,0.00,,,-99.99,FreeWX 2.04,2013-05-11 11:21:00,
2013-05-11 07:26:00,36.9,34.0,29.74,North,-999,0.0,0.0,89,0.00,,,-99.99,FreeWX 2.04,2013-05-11 11:26:00,
2013-05-11 07:31:00,37.2,34.3,29.74,North,-999,0.0,0.0,89,0.00,,,-99.99,FreeWX 2.04,2013-05-11 11:31:00,
2013-05-11 07:36:00,37.6,34.9,29.74,North,-999,0.0,0.0,90,0.00,,,-99.99,FreeWX 2.04,2013-05-11 11:36:00,
2013-05-11 07:41:00,38.1,35.4,29.74,North,-999,0.0,0.0,90,0.00,,,-99.99,FreeWX 2.04,2013-05-11 11:41:00,
2013-05-11 07:46:00,38.5,35.8,29.74,North,-999,0.0,4.5,90,0.00,,,-99.99,FreeWX 2.04,2013-05-11 11:46:00,
2013-05-11 07:51:00,38.5,35.8,29.74,North,-999,0.0,0.0,90,0.00,,,-99.99,FreeWX 2.04,2013-05-11 11:51:00,
2013-05-11 07:56:00,39.0,36.3,29.74,North,-999,0.0,3.1,90,0.00,,,-99.99,FreeWX 2.04,2013-05-11 11:56:00,
2013-05-11 08:01:00,39.6,36.9,29.74,North,-999,0.0,4.9,90,0.00,,,-99.99,FreeWX 2.04,2013-05-11 12:01:00,
2013-05-11 08:06:00,40.8,38.1,29.74,North,-999,0.0,4.5,90,0.00,,,-99.99,FreeWX 2.04,2013-05-11 12:06:00,
2013-05-11 08:11:00,43.0,40.5,29.74,North,-999,0.0,4.0,91,0.00,,,-99.99,FreeWX 2.04,2013-05-11 12:11:00,
2013-05-11 08:16:00,41.9,39.4,29.74,WNW,285,1.0,4.5,91,0.00,,,-99.99,FreeWX 2.04,2013-05-11 12:16:00,
2013-05-11 08:21:00,42.4,39.9,29.74,WNW,284,1.0,4.0,91,0.00,,,-99.99,FreeWX 2.04,2013-05-11 12:21:00,
2013-05-11 08:26:00,43.7,41.2,29.74,West,267,1.0,6.3,91,0.00,,,-99.99,FreeWX 2.04,2013-05-11 12:26:00,
2013-05-11 08:31:00,44.8,42.6,29.74,North,-999,0.0,0.0,92,0.00,,,-99.99,FreeWX 2.04,2013-05-11 12:31:00,
2013-05-11 08:36:00,44.6,42.4,29.74,North,-999,0.0,4.9,92,0.00,,,-99.99,FreeWX 2.04,2013-05-11 12:36:00,
2013-05-11 08:41:00,45.0,42.8,29.74,North,-999,0.0,3.6,92,0.00,,,-99.99,FreeWX 2.04,2013-05-11 12:41:00,
2013-05-11 08:46:00,45.1,43.2,29.74,WNW,285,1.0,5.4,93,0.00,,,-99.99,FreeWX 2.04,2013-05-11 12:46:00,
2013-05-11 08:51:00,45.3,43.3,29.74,West,264,1.0,5.4,93,0.00,,,-99.99,FreeWX 2.04,2013-05-11 12:51:00,
2013-05-11 08:56:00,45.9,43.9,29.74,North,-999,0.0,4.9,93,0.00,,,-99.99,FreeWX 2.04,2013-05-11 12:56:00,
2013-05-11 09:01:00,45.3,43.3,29.74,West,262,1.0,4.9,93,0.00,,,-99.99,FreeWX 2.04,2013-05-11 13:01:00,
2013-05-11 09:06:00,44.6,42.6,29.74,West,268,2.0,5.8,93,0.00,,,-99.99,FreeWX 2.04,2013-05-11 13:06:00,
2013-05-11 09:11:00,44.6,42.6,29.74,WSW,254,1.0,0.0,93,0.00,,,-99.99,FreeWX 2.04,2013-05-11 13:11:00,
2013-05-11 09:16:00,46.0,43.9,29.74,North,-999,0.0,4.5,92,0.00,,,-99.99,FreeWX 2.04,2013-05-11 13:16:00,
2013-05-11 09:21:00,47.8,45.7,29.74,North,-999,0.0,4.9,92,0.00,,,-99.99,FreeWX 2.04,2013-05-11 13:21:00,
2013-05-11 09:26:00,50.4,48.4,29.74,North,-999,0.0,0.0,93,0.00,,,-99.99,FreeWX 2.04,2013-05-11 13:26:00,
2013-05-11 09:31:00,51.8,49.8,29.74,North,-999,0.0,4.5,93,0.00,,,-99.99,FreeWX 2.04,2013-05-11 13:31:00,
2013-05-11 09:36:00,52.0,50.0,29.74,WSW,256,2.0,6.3,93,0.00,,,-99.99,FreeWX 2.04,2013-05-11 13:36:00,
2013-05-11 09:41:00,52.2,49.8,29.74,West,261,1.0,4.5,92,0.00,,,-99.99,FreeWX 2.04,2013-05-11 13:41:00,
2013-05-11 09:46:00,52.3,49.8,29.74,North,-999,0.0,3.6,91,0.00,,,-99.99,FreeWX 2.04,2013-05-11 13:46:00,
2013-05-11 09:51:00,54.3,51.8,29.74,WNW,284,1.0,4.5,91,0.00,,,-99.99,FreeWX 2.04,2013-05-11 13:51:00,
2013-05-11 09:56:00,56.1,53.6,29.74,SW,230,1.0,4.5,91,0.00,,,-99.99,FreeWX 2.04,2013-05-11 13:56:00,
2013-05-11 10:01:00,57.6,54.9,29.74,SW,219,1.0,3.1,91,0.00,,,-99.99,FreeWX 2.04,2013-05-11 14:01:00,
2013-05-11 10:06:00,58.6,55.8,29.71,North,-999,0.0,3.6,90,0.00,,,-99.99,FreeWX 2.04,2013-05-11 14:06:00,
2013-05-11 10:11:00,59.0,55.8,29.71,SSE,156,1.0,3.6,89,0.00,,,-99.99,FreeWX 2.04,2013-05-11 14:11:00,
2013-05-11 10:16:00,57.0,52.0,29.71,East,83,1.0,6.3,83,0.00,,,-99.99,FreeWX 2.04,2013-05-11 14:16:00,
2013-05-11 10:21:00,58.1,52.0,29.71,NNE,25,1.0,4.5,80,0.00,,,-99.99,FreeWX 2.04,2013-05-11 14:21:00,
2013-05-11 10:26:00,59.7,52.5,29.71,ESE,115,1.0,4.9,77,0.00,,,-99.99,FreeWX 2.04,2013-05-11 14:26:00,
2013-05-11 10:31:00,60.4,50.9,29.71,SW,219,1.0,4.0,71,0.00,,,-99.99,FreeWX 2.04,2013-05-11 14:31:00,
2013-05-11 10:36:00,61.7,50.5,29.71,SW,234,1.0,4.9,67,0.00,,,-99.99,FreeWX 2.04,2013-05-11 14:36:00,
2013-05-11 10:41:00,62.1,45.7,29.71,SW,218,1.0,4.0,55,0.00,,,-99.99,FreeWX 2.04,2013-05-11 14:41:00,
2013-05-11 10:46:00,62.2,34.9,29.71,SSW,211,1.0,4.5,36,0.00,,,-99.99,FreeWX 2.04,2013-05-11 14:46:00,
2013-05-11 10:51:00,60.4,24.4,29.71,SW,222,1.0,5.4,25,0.00,,,-99.99,FreeWX 2.04,2013-05-11 14:51:00,
2013-05-11 10:56:00,60.3,25.2,29.71,SW,227,2.0,4.9,26,0.00,,,-99.99,FreeWX 2.04,2013-05-11 14:56:00,
2013-05-11 11:01:00,61.2,26.1,29.71,SSW,210,2.0,4.5,26,0.00,,,-99.99,FreeWX 2.04,2013-05-11 15:01:00,
2013-05-11 11:06:00,62.2,25.0,29.71,SSW,198,2.0,5.4,24,0.00,,,-99.99,FreeWX 2.04,2013-05-11 15:06:00,
2013-05-11 11:11:00,61.9,24.6,29.71,SSW,198,2.0,5.4,24,0.04,,,-99.99,FreeWX 2.04,2013-05-11 15:11:00,
2013-05-11 11:16:00,61.9,24.6,29.71,South,190,2.0,4.9,24,0.04,,,-99.99,FreeWX 2.04,2013-05-11 15:16:00,
2013-05-11 11:21:00,62.2,25.0,29.68,South,187,1.0,4.9,24,0.04,,,-99.99,FreeWX 2.04,2013-05-11 15:21:00,
2013-05-11 11:26:00,62.2,25.0,29.68,SSW,198,1.0,4.9,24,0.04,,,-99.99,FreeWX 2.04,2013-05-11 15:26:00,
2013-05-11 11:31:00,62.6,25.3,29.68,SSW,210,1.0,4.5,24,0.04,,,-99.99,FreeWX 2.04,2013-05-11 15:31:00,
2013-05-11 11:36:00,62.2,25.0,29.68,SSW,205,1.0,4.9,24,0.04,,,-99.99,FreeWX 2.04,2013-05-11 15:36:00,
2013-05-11 11:41:00,61.9,24.6,29.68,South,185,1.0,4.5,24,0.04,,,-99.99,FreeWX 2.04,2013-05-11 15:41:00,
2013-05-11 11:46:00,62.2,25.0,29.68,South,183,1.0,4.9,24,0.04,,,-99.99,FreeWX 2.04,2013-05-11 15:46:00,
2013-05-11 11:51:00,62.8,25.5,29.68,SSW,197,1.0,4.5,24,0.04,,,-99.99,FreeWX 2.04,2013-05-11 15:51:00,
2013-05-11 11:56:00,63.5,26.1,29.68,South,180,1.0,4.9,24,0.04,,,-99.99,FreeWX 2.04,2013-05-11 15:56:00,
2013-05-11 12:01:00,62.1,23.9,29.68,SSE,164,2.0,6.3,23,0.04,,,-99.99,FreeWX 2.04,2013-05-11 16:01:00,
2013-05-11 12:06:00,61.7,24.6,29.65,South,169,3.0,5.8,24,0.04,,,-99.99,FreeWX 2.04,2013-05-11 16:06:00,
2013-05-11 12:11:00,61.7,24.6,29.65,South,169,2.0,5.4,24,0.00,,,-99.99,FreeWX 2.04,2013-05-11 16:11:00,
2013-05-11 12:16:00,62.2,25.0,29.65,SSE,167,2.0,4.9,24,0.00,,,-99.99,FreeWX 2.04,2013-05-11 16:16:00,
2013-05-11 12:21:00,62.6,25.3,29.65,South,169,2.0,4.9,24,0.00,,,-99.99,FreeWX 2.04,2013-05-11 16:21:00,
2013-05-11 12:26:00,62.4,25.2,29.65,South,189,2.0,5.8,24,0.00,,,-99.99,FreeWX 2.04,2013-05-11 16:26:00,
2013-05-11 12:31:00,62.6,25.3,29.65,SSW,205,3.0,7.8,24,0.00,,,-99.99,FreeWX 2.04,2013-05-11 16:31:00,
2013-05-11 12:36:00,63.1,25.7,29.65,SSW,208,3.0,5.4,24,0.00,,,-99.99,FreeWX 2.04,2013-05-11 16:36:00,
2013-05-11 12:41:00,63.9,25.3,29.65,SSW,198,3.0,6.9,23,0.00,,,-99.99,FreeWX 2.04,2013-05-11 16:41:00,
2013-05-11 12:46:00,63.7,25.2,29.65,SSW,196,3.0,7.4,23,0.00,,,-99.99,FreeWX 2.04,2013-05-11 16:46:00,
2013-05-11 12:51:00,64.2,25.7,29.65,SSW,200,2.0,5.8,23,0.00,,,-99.99,FreeWX 2.04,2013-05-11 16:51:00,
2013-05-11 12:56:00,65.1,26.4,29.65,SSW,197,3.0,5.8,23,0.00,,,-99.99,FreeWX 2.04,2013-05-11 16:56:00,
2013-05-11 13:01:00,65.5,26.8,29.65,SSW,199,3.0,6.7,23,0.00,,,-99.99,FreeWX 2.04,2013-05-11 17:01:00,
2013-05-11 13:06:00,65.5,26.8,29.65,SSW,206,3.0,6.3,23,0.00,,,-99.99,FreeWX 2.04,2013-05-11 17:06:00,
2013-05-11 13:11:00,65.7,26.8,29.65,SSW,208,3.0,5.8,23,0.00,,,-99.99,FreeWX 2.04,2013-05-11 17:11:00,
2013-05-11 13:16:00,65.8,27.0,29.65,SSW,199,3.0,6.3,23,0.00,,,-99.99,FreeWX 2.04,2013-05-11 17:16:00,
2013-05-11 13:21:00,65.8,27.0,29.62,SSW,202,3.0,7.4,23,0.00,,,-99.99,FreeWX 2.04,2013-05-11 17:21:00,
2013-05-11 13:26:00,65.8,27.0,29.62,SSW,208,3.0,6.9,23,0.00,,,-99.99,FreeWX 2.04,2013-05-11 17:26:00,
2013-05-11 13:31:00,65.7,26.8,29.62,SSW,199,3.0,6.7,23,0.00,,,-99.99,FreeWX 2.04,2013-05-11 17:31:00,
2013-05-11 13:36:00,66.0,27.1,29.62,SSW,196,2.0,6.9,23,0.00,,,-99.99,FreeWX 2.04,2013-05-11 17:36:00,
2013-05-11 13:41:00,65.3,26.6,29.62,SSW,201,2.0,5.4,23,0.00,,,-99.99,FreeWX 2.04,2013-05-11 17:41:00,
2013-05-11 13:46:00,64.4,25.9,29.62,SSW,201,3.0,7.4,23,0.00,,,-99.99,FreeWX 2.04,2013-05-11 17:46:00,
2013-05-11 13:51:00,64.2,25.7,29.62,SSW,198,3.0,6.7,23,0.00,,,-99.99,FreeWX 2.04,2013-05-11 17:51:00,
2013-05-11 13:56:00,64.0,25.5,29.62,SSW,206,3.0,6.9,23,0.00,,,-99.99,FreeWX 2.04,2013-05-11 17:56:00,
2013-05-11 14:01:00,63.7,26.2,29.62,SSW,211,3.0,4.9,24,0.00,,,-99.99,FreeWX 2.04,2013-05-11 18:01:00,
2013-05-11 14:06:00,65.5,27.7,29.62,SSW,198,3.0,6.3,24,0.00,,,-99.99,FreeWX 2.04,2013-05-11 18:06:00,
2013-05-11 14:11:00,65.1,27.5,29.62,SSW,195,3.0,6.7,24,0.00,,,-99.99,FreeWX 2.04,2013-05-11 18:11:00,
2013-05-11 14:16:00,66.6,28.6,29.62,SSW,197,2.0,4.9,24,0.00,,,-99.99,FreeWX 2.04,2013-05-11 18:16:00,
2013-05-11 14:21:00,67.8,28.6,29.62,SSW,195,2.0,5.8,23,0.00,,,-99.99,FreeWX 2.04,2013-05-11 18:21:00,
2013-05-11 14:26:00,69.3,28.8,29.62,SSW,193,3.0,5.8,22,0.00,,,-99.99,FreeWX 2.04,2013-05-11 18:26:00,
2013-05-11 14:31:00,69.6,29.1,29.62,SSW,204,2.0,6.3,22,0.00,,,-99.99,FreeWX 2.04,2013-05-11 18:31:00,
2013-05-11 14:36:00,68.9,28.4,29.62,SSW,206,3.0,5.8,22,0.00,,,-99.99,FreeWX 2.04,2013-05-11 18:36:00,
2013-05-11 14:41:00,68.4,28.0,29.62,SSW,193,3.0,5.8,22,0.00,,,-99.99,FreeWX 2.04,2013-05-11 18:41:00,
2013-05-11 14:46:00,68.9,28.4,29.62,South,189,3.0,6.3,22,0.00,,,-99.99,FreeWX 2.04,2013-05-11 18:46:00,
2013-05-11 14:51:00,69.6,29.1,29.59,SSW,197,3.0,5.8,22,0.00,,,-99.99,FreeWX 2.04,2013-05-11 18:51:00,
2013-05-11 14:56:00,68.7,26.1,29.59,SSW,198,4.0,8.7,20,0.00,,,-99.99,FreeWX 2.04,2013-05-11 18:56:00,
2013-05-11 15:01:00,66.9,24.6,29.59,SSW,204,3.0,7.4,20,0.00,,,-99.99,FreeWX 2.04,2013-05-11 19:01:00,
2013-05-11 15:06:00,64.9,22.8,29.59,SSW,210,2.0,5.8,20,0.00,,,-99.99,FreeWX 2.04,2013-05-11 19:06:00,
2013-05-11 15:11:00,62.8,24.4,29.59,SW,221,2.0,7.4,23,0.00,,,-99.99,FreeWX 2.04,2013-05-11 19:11:00,
2013-05-11 15:16:00,60.8,23.7,29.59,WSW,237,3.0,7.4,24,0.00,,,-99.99,FreeWX 2.04,2013-05-11 19:16:00,
2013-05-11 15:21:00,61.0,25.0,29.59,SW,223,2.0,4.9,25,0.00,,,-99.99,FreeWX 2.04,2013-05-11 19:21:00,
2013-05-11 15:26:00,61.3,26.2,29.59,SSW,205,1.0,4.5,26,0.00,,,-99.99,FreeWX 2.04,2013-05-11 19:26:00,
2013-05-11 15:31:00,62.1,26.8,29.59,SSW,204,1.0,4.5,26,0.00,,,-99.99,FreeWX 2.04,2013-05-11 19:31:00,
2013-05-11 15:36:00,62.2,27.0,29.59,SSW,207,1.0,4.9,26,0.00,,,-99.99,FreeWX 2.04,2013-05-11 19:36:00,
2013-05-11 15:41:00,61.0,25.0,29.59,SSW,206,1.0,3.6,25,0.00,,,-99.99,FreeWX 2.04,2013-05-11 19:41:00,
2013-05-11 15:46:00,59.5,24.6,29.59,SSW,213,1.0,6.3,26,0.00,,,-99.99,FreeWX 2.04,2013-05-11 19:46:00,
2013-05-11 15:51:00,59.4,25.3,29.56,SW,220,1.0,5.4,27,0.00,,,-99.99,FreeWX 2.04,2013-05-11 19:51:00,
2013-05-11 15:56:00,61.0,29.3,29.56,SW,231,1.0,6.7,30,0.00,,,-99.99,FreeWX 2.04,2013-05-11 19:56:00,
2013-05-11 16:01:00,65.1,28.4,29.56,WSW,237,2.0,5.8,25,0.00,,,-99.99,FreeWX 2.04,2013-05-11 20:01:00,
2013-05-11 16:06:00,65.3,27.5,29.56,SW,222,2.0,6.3,24,0.00,,,-99.99,FreeWX 2.04,2013-05-11 20:06:00,
2013-05-11 16:11:00,65.7,26.8,29.56,South,191,2.0,5.8,23,0.00,,,-99.99,FreeWX 2.04,2013-05-11 20:11:00,
2013-05-11 16:16:00,66.4,28.6,29.56,SSW,192,2.0,4.9,24,0.00,,,-99.99,FreeWX 2.04,2013-05-11 20:16:00,
2013-05-11 16:21:00,64.9,26.2,29.53,SSW,202,2.0,5.8,23,0.00,,,-99.99,FreeWX 2.04,2013-05-11 20:21:00,
2013-05-11 16:26:00,62.4,25.2,29.53,SSW,198,2.0,4.5,24,0.00,,,-99.99,FreeWX 2.04,2013-05-11 20:26:00,
2013-05-11 16:31:00,58.8,23.0,29.53,SSW,197,2.0,4.9,25,0.00,,,-99.99,FreeWX 2.04,2013-05-11 20:31:00,
2013-05-11 16:36:00,55.9,21.6,29.56,South,176,1.0,4.5,26,0.00,,,-99.99,FreeWX 2.04,2013-05-11 20:36:00,
2013-05-11 16:41:00,53.6,20.5,29.56,SSE,159,1.0,5.8,27,0.00,,,-99.99,FreeWX 2.04,2013-05-11 20:41:00,
2013-05-11 16:46:00,52.0,21.6,29.56,SSE,159,1.0,2.7,30,0.00,,,-99.99,FreeWX 2.04,2013-05-11 20:46:00,
2013-05-11 16:51:00,50.7,22.6,29.56,North,-999,0.0,3.6,33,0.00,,,-99.99,FreeWX 2.04,2013-05-11 20:51:00,
2013-05-11 16:56:00,50.0,24.1,29.56,North,-999,0.0,3.6,36,0.00,,,-99.99,FreeWX 2.04,2013-05-11 20:56:00,
2013-05-11 17:01:00,49.1,23.9,29.56,North,-999,0.0,4.0,37,0.00,,,-99.99,FreeWX 2.04,2013-05-11 21:01:00,
2013-05-11 17:06:00,48.7,24.3,29.56,North,-999,0.0,0.0,38,0.00,,,-99.99,FreeWX 2.04,2013-05-11 21:06:00,
2013-05-11 17:11:00,48.9,25.7,29.56,North,-999,0.0,0.0,40,0.00,,,-99.99,FreeWX 2.04,2013-05-11 21:11:00,
2013-05-11 17:16:00,49.3,26.1,29.56,North,-999,0.0,0.0,40,0.00,,,-99.99,FreeWX 2.04,2013-05-11 21:16:00,
2013-05-11 17:21:00,49.8,27.1,29.53,North,-999,0.0,0.0,41,0.00,,,-99.99,FreeWX 2.04,2013-05-11 21:21:00,
2013-05-11 17:26:00,49.6,27.0,29.53,North,-999,0.0,5.4,41,0.00,,,-99.99,FreeWX 2.04,2013-05-11 21:26:00,
2013-05-11 17:31:00,47.3,28.0,29.53,WNW,289,2.0,11.2,47,0.08,,,-99.99,FreeWX 2.04,2013-05-11 21:31:00,
2013-05-11 17:36:00,45.5,28.4,29.56,NNW,339,4.0,9.2,51,0.12,,,-99.99,FreeWX 2.04,2013-05-11 21:36:00,
2013-05-11 17:41:00,44.4,30.2,29.56,NW,317,4.0,12.1,57,0.12,,,-99.99,FreeWX 2.04,2013-05-11 21:41:00,
2013-05-11 17:46:00,44.2,31.6,29.56,NW,307,3.0,6.3,61,0.12,,,-99.99,FreeWX 2.04,2013-05-11 21:46:00,
2013-05-11 17:51:00,44.1,32.7,29.59,NW,321,2.0,6.9,64,0.12,,,-99.99,FreeWX 2.04,2013-05-11 21:51:00,
2013-05-11 17:56:00,43.9,33.3,29.59,NW,310,1.0,4.5,66,0.12,,,-99.99,FreeWX 2.04,2013-05-11 21:56:00,
2013-05-11 18:01:00,43.0,33.1,29.59,NW,305,2.0,7.4,68,0.12,,,-99.99,FreeWX 2.04,2013-05-11 22:01:00,
2013-05-11 18:06:00,42.3,32.9,29.59,WNW,293,3.0,6.9,69,0.12,,,-99.99,FreeWX 2.04,2013-05-11 22:06:00,
2013-05-11 18:11:00,41.5,32.9,29.59,WNW,294,3.0,6.9,71,0.16,,,-99.99,FreeWX 2.04,2013-05-11 22:11:00,
2013-05-11 18:16:00,41.0,32.7,29.59,NW,324,3.0,6.3,72,0.16,,,-99.99,FreeWX 2.04,2013-05-11 22:16:00,
2013-05-11 18:21:00,40.3,32.4,29.62,NW,311,2.0,7.4,73,0.16,,,-99.99,FreeWX 2.04,2013-05-11 22:21:00,
2013-05-11 18:26:00,40.1,32.9,29.62,WNW,292,3.0,7.8,75,0.12,,,-99.99,FreeWX 2.04,2013-05-11 22:26:00,
2013-05-11 18:31:00,40.1,33.4,29.62,WNW,303,3.0,7.8,77,0.08,,,-99.99,FreeWX 2.04,2013-05-11 22:31:00,
2013-05-11 18:36:00,40.1,33.8,29.62,NW,316,2.0,8.3,78,0.04,,,-99.99,FreeWX 2.04,2013-05-11 22:36:00,
2013-05-11 18:41:00,40.5,34.2,29.62,NW,312,2.0,6.7,78,0.04,,,-99.99,FreeWX 2.04,2013-05-11 22:41:00,
2013-05-11 18:46:00,40.8,35.1,29.62,WNW,298,2.0,5.4,80,0.04,,,-99.99,FreeWX 2.04,2013-05-11 22:46:00,
2013-05-11 18:51:00,40.5,34.7,29.62,WNW,302,2.0,9.6,80,0.04,,,-99.99,FreeWX 2.04,2013-05-11 22:51:00,
2013-05-11 18:56:00,39.6,34.0,29.62,NW,321,2.0,6.3,80,0.04,,,-99.99,FreeWX 2.04,2013-05-11 22:56:00,
2013-05-11 19:01:00,39.0,33.4,29.62,NW,322,2.0,7.4,80,0.04,,,-99.99,FreeWX 2.04,2013-05-11 23:01:00,
2013-05-11 19:06:00,39.2,33.6,29.65,WNW,301,3.0,8.7,80,0.04,,,-99.99,FreeWX 2.04,2013-05-11 23:06:00,
2013-05-11 19:11:00,38.1,32.5,29.65,NW,304,3.0,9.2,80,0.00,,,-99.99,FreeWX 2.04,2013-05-11 23:11:00,
2013-05-11 19:16:00,37.4,31.8,29.65,NW,315,4.0,7.4,80,0.00,,,-99.99,FreeWX 2.04,2013-05-11 23:16:00,
2013-05-11 19:21:00,37.6,32.4,29.65,NW,310,3.0,7.4,81,0.00,,,-99.99,FreeWX 2.04,2013-05-11 23:21:00,
2013-05-11 19:26:00,37.6,32.4,29.65,NW,315,2.0,6.3,81,0.00,,,-99.99,FreeWX 2.04,2013-05-11 23:26:00,
2013-05-11 19:31:00,37.4,32.4,29.65,NW,304,2.0,7.4,82,0.00,,,-99.99,FreeWX 2.04,2013-05-11 23:31:00,
2013-05-11 19:36:00,37.2,32.2,29.65,NW,309,2.0,10.1,82,0.00,,,-99.99,FreeWX 2.04,2013-05-11 23:36:00,
2013-05-11 19:41:00,36.9,31.8,29.65,NW,317,2.0,8.3,82,0.00,,,-99.99,FreeWX 2.04,2013-05-11 23:41:00,
2013-05-11 19:46:00,36.7,31.6,29.65,NW,318,2.0,7.4,82,0.00,,,-99.99,FreeWX 2.04,2013-05-11 23:46:00,
2013-05-11 19:51:00,36.5,31.5,29.65,NW,318,3.0,6.7,82,0.00,,,-99.99,FreeWX 2.04,2013-05-11 23:51:00,
2013-05-11 19:57:00,36.5,31.8,29.65,NW,308,2.0,7.8,83,0.00,,,-99.99,FreeWX 2.04,2013-05-11 23:57:00,
2013-05-11 20:02:00,36.1,31.5,29.65,NW,313,2.0,6.7,83,0.00,,,-99.99,FreeWX 2.04,2013-05-12 00:02:00,
2013-05-11 20:07:00,36.1,31.5,29.68,WNW,302,2.0,6.3,83,0.00,,,-99.99,FreeWX 2.04,2013-05-12 00:07:00,
2013-05-11 20:12:00,36.0,31.3,29.68,NW,305,3.0,9.2,83,0.00,,,-99.99,FreeWX 2.04,2013-05-12 00:12:00,
2013-05-11 20:17:00,36.0,31.3,29.68,WNW,303,3.0,7.4,83,0.00,,,-99.99,FreeWX 2.04,2013-05-12 00:17:00,
2013-05-11 20:22:00,35.6,30.9,29.68,WNW,299,2.0,8.3,83,0.00,,,-99.99,FreeWX 2.04,2013-05-12 00:22:00,
2013-05-11 20:27:00,35.6,30.9,29.68,WNW,293,2.0,5.8,83,0.00,,,-99.99,FreeWX 2.04,2013-05-12 00:27:00,
2013-05-11 20:32:00,35.4,30.6,29.68,WNW,295,2.0,5.8,82,0.00,,,-99.99,FreeWX 2.04,2013-05-12 00:32:00,
2013-05-11 20:37:00,35.2,30.4,29.68,NW,313,1.0,6.3,82,0.00,,,-99.99,FreeWX 2.04,2013-05-12 00:37:00,
2013-05-11 20:42:00,35.1,30.2,29.68,NW,315,1.0,4.5,82,0.00,,,-99.99,FreeWX 2.04,2013-05-12 00:42:00,
2013-05-11 20:47:00,35.1,30.2,29.68,WNW,300,1.0,5.4,82,0.00,,,-99.99,FreeWX 2.04,2013-05-12 00:47:00,
2013-05-11 20:52:00,35.1,30.2,29.68,WNW,283,1.0,7.8,82,0.00,,,-99.99,FreeWX 2.04,2013-05-12 00:52:00,
2013-05-11 20:57:00,35.1,30.2,29.68,North,-999,0.0,4.9,82,0.00,,,-99.99,FreeWX 2.04,2013-05-12 00:57:00,
2013-05-11 21:02:00,35.1,30.2,29.68,North,-999,0.0,4.9,82,0.00,,,-99.99,FreeWX 2.04,2013-05-12 01:02:00,
2013-05-11 21:07:00,35.2,30.4,29.71,North,-999,0.0,3.6,82,0.00,,,-99.99,FreeWX 2.04,2013-05-12 01:07:00,
2013-05-11 21:12:00,35.1,30.2,29.71,North,-999,0.0,4.0,82,0.00,,,-99.99,FreeWX 2.04,2013-05-12 01:12:00,
2013-05-11 21:17:00,35.2,30.4,29.71,North,-999,0.0,7.8,82,0.00,,,-99.99,FreeWX 2.04,2013-05-12 01:17:00,
2013-05-11 21:22:00,35.2,30.4,29.71,North,-999,0.0,5.4,82,0.00,,,-99.99,FreeWX 2.04,2013-05-12 01:22:00,
2013-05-11 21:27:00,35.2,30.4,29.71,North,-999,0.0,4.5,82,0.00,,,-99.99,FreeWX 2.04,2013-05-12 01:27:00,
2013-05-11 21:32:00,35.1,30.2,29.71,North,-999,0.0,4.5,82,0.00,,,-99.99,FreeWX 2.04,2013-05-12 01:32:00,
2013-05-11 21:37:00,35.1,30.2,29.71,North,-999,0.0,4.0,82,0.00,,,-99.99,FreeWX 2.04,2013-05-12 01:37:00,
2013-05-11 21:42:00,35.2,30.4,29.71,North,-999,0.0,4.9,82,0.00,,,-99.99,FreeWX 2.04,2013-05-12 01:42:00,
2013-05-11 21:47:00,35.1,30.2,29.71,North,-999,0.0,0.0,82,0.00,,,-99.99,FreeWX 2.04,2013-05-12 01:47:00,
2013-05-11 21:52:00,34.9,29.7,29.71,North,-999,0.0,4.5,81,0.00,,,-99.99,FreeWX 2.04,2013-05-12 01:52:00,
2013-05-11 21:57:00,34.9,29.7,29.71,North,-999,0.0,5.4,81,0.00,,,-99.99,FreeWX 2.04,2013-05-12 01:57:00,